Satellite-Ground Cal/Val Site Overpasses Predictions

Prediction of Satellite NPP Overpassing Cal/Val Site: Antarctic Dome C

Ground Cal/Val Site Location: Latitude: -75.10, Longitude: 123.35; Satellite-Ground Site NADIR distance within 100 km.

Table of predicted overpasses for the next 14.0 days since TLE Epoch: 6/3/2016
Interval Starting Time Ending Time Minimum Distance Time Minimum Distance (km)
1 06/03/2016 14:55:55 06/03/2016 14:56:24 06/03/2016 14:56:10 20.77
2 06/04/2016 14:37:13 06/04/2016 14:37:27 06/04/2016 14:37:20 86.42
3 06/05/2016 07:38:45 06/05/2016 07:39:12 06/05/2016 07:38:59 36.92
4 06/06/2016 07:19:58 06/06/2016 07:20:18 06/06/2016 07:20:08 73.15
5 06/08/2016 15:02:13 06/08/2016 15:02:37 06/08/2016 15:02:25 57.69
6 06/09/2016 14:43:23 06/09/2016 14:43:48 06/09/2016 14:43:36 51.52
7 06/10/2016 07:45:05 06/10/2016 07:45:25 06/10/2016 07:45:15 72.20
8 06/11/2016 07:26:11 06/11/2016 07:26:38 06/11/2016 07:26:25 35.82
9 06/13/2016 15:08:37 06/13/2016 15:08:45 06/13/2016 15:08:41 95.46
10 06/14/2016 14:49:37 06/14/2016 14:50:06 06/14/2016 14:49:51 15.88


NCC Satellite Cal/Val Overpasses Prediction Service
